sat.trackr.live / text

‹ back to catalog

STARLINK-11653 [DTC]

NORAD 63267 · 2025-053C

PAYLOAD ACTIVE UNKNOWN

§ Identity

Operator
Country
US
Launch date
2025-03-15
Launch site
AFETR
Launch vehicle
Mass (kg)
RCS (m²)

Purposes: comms

External: N2YO · Heavens-Above · Gunter

§ Orbital elements

Epoch: 2026-05-25T00:49:48.940608Z

Period
91.67 min
Inclination
43.0049°
Eccentricity
0.0002866
Mean motion
15.70901179 rev/d
Perigee alt
354.4 km
Apogee alt
358.3 km
Semi-major
6,734.5 km
B*
1.3586e-3
RAAN
12.3058°
Arg perigee
260.0336°
Mean anomaly
100.0209°
Rev number
6,967

§ Raw data

STARLINK-11653 [DTC]1 63267U 25053C   26145.03459422  .00178133  00000+0  13586-2 0  99932 63267  43.0049  12.3058 0002866 260.0336 100.0209 15.70901179 69677

JSON: /api/v1/satellites/63267 · /tle

For live sub-satellite position, see the globe view (requires WebGL).

§ Visibility from observer

Set your observer location to see the next 7 days of passes ≥ 10°. The values pass through the URL so the page stays shareable.

No JS? Fill the form by hand. The geolocation button needs JavaScript.